This demonstration page uses our WeatherBlox Daily Observations layout. Learn more.

Left ArrowRight Arrow

34.74481, -87.66753

Hourly Observations for June 26, 2018

Temp ( °F °C ) Dew Point ( °F °C ) Humidity (%) Winds ( mph kmh ) Pressure ( in mb ) Visibility ( mi km ) Precip ( " mm )
12:53 am 00:53 Clear 77 25 73 22.8 88 88 SSE 5 7 30.06 1018 10 16 0.00 0.00
1:53 am 01:53 Clear 77 25 72 22.2 85 85 S 5 7 30.06 1018 10 16 0.00 0.00
2:53 am 02:53 Clear 76 24.4 72 22.2 88 88 SSE 3 6 30.06 1018 10 16 0.00 0.00
3:53 am 03:53 Clear 76 24.4 72 22.2 88 88 S 3 6 30.06 1018 10 16 0.00 0.00
4:53 am 04:53 Clear 74 23.3 71 21.7 91 91 Calm 30.07 1018 10 16 0.00 0.00
5:53 am 05:53 Sunny 75 23.9 71 21.7 88 88 S 5 7 30.07 1018 10 16 0.00 0.00
6:53 am 06:53 Sunny 77 25 72 22.2 85 85 S 5 7 30.08 1019 10 16 0.00 0.00
7:53 am 07:53 Sunny 80 26.7 72 22.2 76 76 S 5 7 30.08 1019 10 16 0.00 0.00
8:53 am 08:53 Sunny 83 28.3 73 22.8 72 72 S 5 7 30.09 1019 10 16 0.00 0.00
9:53 am 09:53 Sunny 87 30.6 74 23.3 65 65 SSW 3 6 30.09 1019 10 16 0.00 0.00
10:53 am 10:53 Mostly Sunny 88 31.1 73 22.8 61 61 WSW 9 15 30.09 1019 10 16 0.00 0.00
11:53 am 11:53 Mostly Sunny 90 32.2 75 23.9 62 62 WSW 13 20 30.08 1019 10 16 0.00 0.00
12:53 pm 12:53 Partly Cloudy 91 32.8 75 23.9 59 59 W 12 19 30.06 1018 10 16 0.00 0.00
1:53 pm 13:53 Sunny 92 33.3 75 23.9 58 58 WSW 10 17 30.03 1017 10 16 0.00 0.00
2:53 pm 14:53 Mostly Sunny 92 33.3 75 23.9 58 58 WSW 10 17 30.02 1017 10 16 0.00 0.00
3:53 pm 15:53 Partly Cloudy 92 33.3 75 23.9 58 58 W 10 17 30.00 1016 10 16 0.00 0.00
4:53 pm 16:53 Mostly Sunny 91 32.8 75 23.9 59 59 WSW 10 17 29.98 1015 10 16 0.00 0.00
5:53 pm 17:53 Sunny 91 32.8 74 23.3 57 57 WSW 6 9 29.96 1015 10 16 0.00 0.00
6:53 pm 18:53 Sunny 90 32.2 73 22.8 58 58 SW 7 11 29.98 1015 10 16 0.00 0.00
7:53 pm 19:53 Sunny 87 30.6 74 23.3 65 65 S 6 9 29.99 1016 10 16 0.00 0.00
8:53 pm 20:53 Clear 84 28.9 75 23.9 74 74 SSW 5 7 30.01 1016 10 16 0.00 0.00
9:53 pm 21:53 Clear 81 27.2 68 20 65 65 S 8 13 30.01 1016 10 16 0.00 0.00
10:53 pm 22:53 Clear 79 26.1 67 19.4 67 67 S 5 7 30.01 1016 10 16 0.00 0.00
11:53 pm 23:53 Clear 78 25.6 68 20 71 71 SW 6 9 30.02 1017 10 16 0.00 0.00

Powered by AerisWeather